Lapse_Rate
3.6 4.3 5.0 5.3 5.2 5.0 4.6 4.4 4.3 3.9 3.6 3.4 3.3 3.1 2.8 3.3 3.3 3.1 2.6 2.3 2.4 2.6 2.4 2.4 2.5 2.3 1.5 3.5 4.0 4.4 4.4 4.4 3.2 3.3 3.7 4.5 5.3 5.3 6.5 6.3 6.2 6.5 6.5 5.4 4.9 4.9 4.8
3.7 3.5 3.6 4.1 5.5 5.5 5.2 5.1 4.7 3.9 3.6 3.5 3.4 3.2 2.8 2.7 3.1 3.7 3.3 2.8 2.6 2.5 2.6 2.8 2.5 3.0 2.8 6.0 5.3 3.9 4.3 3.6 3.6 4.0 4.5 5.0 5.3 5.1 6.1 6.3 6.5 6.3 6.1 5.9 5.3 5.1 5.2
4.0 3.9 3.7 3.8 4.0 4.5 5.1 5.6 5.6 5.2 3.9 3.3 3.3 2.8 2.9 2.9 3.0 4.0 3.7 3.3 2.8 2.6 2.7 3.1 3.3 3.8 4.2 3.6 3.1 2.3 2.6 4.2 4.4 4.6 5.3 5.2 5.8 6.5 6.3 6.5 6.2 6.0 6.5 6.5 6.3 5.7 6.2
3.5 3.7 4.1 4.1 4.3 4.2 4.6 4.2 5.5 5.8 4.5 3.9 3.7 3.1 2.8 2.5 2.8 3.3 4.2 3.8 3.1 2.9 3.0 3.5 4.3 5.3 4.2 3.0 2.5 0.8 2.1 3.3 4.3 3.9 4.9 5.3 6.1 6.1 6.1 5.4 5.9 6.5 6.5 6.5 6.5 6.5 6.1
3.4 3.8 3.9 3.9 3.8 4.0 4.0 4.6 4.6 5.1 5.2 4.2 3.7 3.4 2.8 2.4 3.6 2.5 4.3 4.2 3.9 3.2 3.6 4.0 5.7 6.2 4.7 4.4 3.4 3.8 3.3 4.2 4.7 5.1 4.5 6.9 6.6 5.5 6.1 6.5 6.5 6.5 6.5 6.5 6.5 6.4 6.5
3.7 3.5 3.8 3.8 3.7 3.3 3.4 3.8 5.0 5.7 5.1 4.8 4.1 3.2 2.8 3.0 3.9 3.6 4.9 4.8 4.5 3.5 4.0 5.4 7.5 6.7 3.5 5.4 6.4 6.9 2.7 5.0 6.1 6.5 6.2 6.1 4.5 6.5 6.5 6.5 6.5 6.5 6.5 6.5 6.5 6.5 6.5
4.4 3.8 3.7 4.1 3.7 3.6 3.3 3.7 5.2 5.5 5.8 4.7 3.8 3.5 3.4 3.3 3.1 4.0 5.2 4.2 5.8 4.9 5.2 3.8 4.3 4.4 4.4 5.5 5.8 6.1 4.5 4.6 6.4 6.2 6.5 6.0 6.5 6.5 6.5 6.5 6.5 6.5 6.5 6.5 6.5 6.5 6.5
4.7 3.4 3.6 4.1 3.9 3.6 3.4 3.6 5.9 6.3 5.2 4.2 4.0 3.7 3.4 3.1 4.1 3.5 4.6 5.6 6.1 6.6 5.6 4.0 4.3 5.5 4.6 5.8 5.7 4.9 5.9 5.9 5.9 6.5 6.5 6.5 6.5 6.5 6.5 6.5 6.5 6.5 6.5 6.5 6.5 6.5 6.5
5.5 4.2 3.9 4.6 4.0 5.0 6.0 5.0 6.7 6.0 5.7 4.8 4.0 3.5 3.2 3.7 4.3 4.4 4.1 5.6 6.6 6.8 5.9 5.5 3.9 5.1 6.3 6.1 6.2 4.8 5.4 4.8 6.5 6.5 6.5 6.5 6.5 6.5 6.5 6.5 6.5 6.5 6.5 6.5 6.5 6.5 6.5
6.5 3.6 3.2 4.0 5.2 6.7 6.3 6.4 6.5 5.7 4.9 4.0 3.5 3.3 3.3 4.4 4.9 5.0 4.9 5.1 5.6 6.0 6.5 6.5 6.5 5.5 6.5 6.1 6.4 5.4 5.3 5.4 6.4 6.5 6.5 6.5 6.5 6.5 6.5 6.5 6.5 6.5 6.5 6.5 6.5 6.5 6.5
6.5 5.1 4.5 4.1 3.1 6.0 5.7 6.1 5.9 5.0 4.3 3.5 3.5 2.9 3.8 4.9 4.1 6.3 6.8 6.1 6.0 5.8 6.5 6.5 6.3 6.3 6.0 6.3 6.1 6.1 5.9 6.3 6.5 6.5 6.5 6.5 6.5 6.5 6.5 6.5 6.5 6.5 6.5 6.5 6.5 6.5 6.5
7.0 6.0 5.4 3.7 4.0 5.3 5.4 5.4 5.2 4.6 4.1 3.5 3.1 3.8 5.0 6.1 5.3 6.5 6.2 6.4 6.3 6.5 6.5 6.5 6.3 6.5 6.5 6.3 6.5 6.3 6.2 6.4 5.7 6.5 6.5 6.5 6.3 6.5 6.5 6.5 6.5 6.5 6.5 6.5 6.5 6.5 6.5
7.0 5.5 4.3 4.5 4.9 5.1 5.1 5.3 4.3 4.1 3.1 3.3 4.0 4.7 5.1 5.1 5.9 6.4 6.6 7.0 6.5 6.5 6.5 6.5 6.5 6.5 6.5 6.5 6.5 6.5 6.5 6.5 6.5 6.5 6.5 6.5 6.5 6.5 6.4 6.5 6.5 6.5 6.5 6.5 6.5 6.5 6.5
7.0 5.6 3.3 4.7 5.2 5.0 4.5 3.8 3.2 3.7 4.5 4.5 4.5 5.8 6.4 6.2 5.7 6.4 6.5 6.4 6.5 6.5 6.5 6.5 6.5 6.5 6.5 6.5 6.5 6.5 6.5 6.5 6.5 6.5 6.5 6.5 6.5 6.5 6.5 6.5 6.5 6.5 6.5 6.5 6.5 6.5 6.5
6.6 6.1 5.1 4.1 3.4 3.4 4.3 3.5 3.5 4.4 4.7 5.1 5.6 4.5 5.3 7.1 6.3 5.6 6.6 6.5 6.5 6.5 6.5 6.5 6.5 6.5 6.5 6.5 6.5 6.5 6.5 6.5 6.5 6.5 6.5 6.5 6.5 6.5 6.5 6.5 6.5 6.5 6.5 6.5 6.5 6.5 6.5
6.8 6.2 5.2 6.1 6.4 5.7 5.8 6.3 6.3 5.8 5.5 5.6 4.1 6.2 6.8 6.7 6.3 6.4 6.4 6.5 6.5 6.5 6.5 6.5 6.5 6.5 6.5 6.5 6.5 6.5 6.5 6.5 6.5 6.5 6.5 6.5 6.5 6.5 6.5 6.5 6.5 6.5 6.5 6.5 6.5 6.5 6.5
6.8 6.9 6.3 5.2 4.8 4.8 4.8 4.7 4.8 5.3 5.3 5.9 6.4 6.6 7.8 6.8 6.7 6.8 6.5 6.5 6.5 6.8 6.6 6.5 6.5 6.5 6.5 6.5 6.5 6.5 6.5 6.5 6.5 6.5 6.5 6.5 6.5 6.5 6.5 6.5 6.5 6.5 6.5 6.5 6.5 6.5 6.5
7.2 7.0 6.8 6.7 6.8 6.6 6.2 6.1 6.0 5.8 6.7 7.3 5.9 6.5 6.8 6.5 6.5 6.4 6.5 6.5 6.5 6.5 6.8 6.5 6.5 6.5 6.5 6.5 6.5 6.5 6.5 6.5 6.4 6.4 6.5 6.5 6.5 6.5 6.5 6.5 6.5 6.5 6.5 6.5 6.5 6.5 6.5
7.2 7.1 7.0 6.9 6.9 6.9 6.9 6.7 6.8 7.7 7.5 5.6 6.6 6.4 6.2 6.2 6.5 6.5 6.5 6.5 6.5 6.5 6.5 6.5 6.5 6.5 6.5 6.5 6.5 6.5 6.5 6.5 6.3 6.5 6.5 6.5 6.5 6.5 6.5 6.5 6.5 6.5 6.5 6.5 6.5 6.5 6.5
7.4 7.3 7.4 6.9 7.2 7.4 7.5 7.1 7.3 7.5 7.3 4.2 3.6 6.5 6.2 6.9 6.3 6.5 6.5 6.5 6.5 6.5 6.5 6.5 6.5 6.5 6.5 6.5 6.5 6.5 6.5 6.5 6.1 6.4 6.9 6.1 6.5 6.5 6.5 6.5 6.5 6.5 6.5 6.5 6.5 6.5 6.5
7.6 7.9 7.7 7.1 6.8 8.1 7.3 7.1 6.8 6.8 6.3 4.4 4.3 6.0 5.7 6.5 6.5 6.5 6.5 6.5 6.5 6.5 6.5 6.4 6.5 6.5 6.5 6.5 6.5 6.5 6.5 6.5 6.5 6.7 6.4 6.5 6.5 6.5 6.5 6.5 6.5 6.5 6.5 6.5 6.5 6.5 6.5
8.0 8.0 8.7 8.1 7.4 8.6 7.6 7.0 6.7 6.7 6.1 4.9 4.3 5.5 4.8 6.0 6.1 6.5 6.5 6.5 6.5 6.5 6.5 6.5 6.5 6.5 6.5 6.5 6.5 6.5 6.5 6.5 6.5 6.5 6.5 6.5 6.5 6.5 6.5 6.5 6.5 6.5 6.5 6.5 6.5 6.5 6.5
8.2 8.0 8.2 8.3 8.4 7.9 7.3 7.1 6.8 7.1 5.7 4.1 3.5 3.8 3.6 6.4 6.5 6.5 6.5 6.5 6.5 6.5 6.4 6.3 6.4 6.5 6.5 6.5 6.4 5.9 5.2 5.4 6.1 6.5 6.5 6.5 6.5 6.5 6.5 6.5 6.5 6.5 6.5 6.5 6.5 6.5 6.5
7.9 8.4 8.2 8.3 8.2 8.1 7.4 6.7 6.1 5.8 5.1 4.0 2.6 2.5 3.7 6.5 6.5 6.5 6.5 6.5 6.5 6.5 6.5 6.5 5.8 6.5 6.5 5.5 5.7 5.6 5.5 5.6 6.0 6.4 5.9 6.5 6.5 6.5 6.5 6.5 6.5 6.5 6.5 6.5 6.5 6.5 6.5
8.4 8.4 8.6 8.1 7.8 7.3 6.8 6.6 6.0 5.4 4.2 2.6 0.8 2.1 2.8 6.5 6.4 6.5 6.5 6.5 6.2 5.7 6.4 6.4 6.2 5.9 4.3 5.2 6.5 6.5 6.5 6.5 6.5 6.5 6.5 6.5 6.5 6.5 6.5 6.5 6.5 6.5 6.5 6.5 6.5 6.5 6.5
8.2 8.4 8.3 8.1 7.4 7.3 7.1 6.4 5.9 5.5 4.5 1.6 0.3 -0.2 2.1 6.2 6.5 6.4 6.4 6.2 6.5 6.5 6.5 6.4 5.9 4.6 3.6 6.4 6.5 6.5 6.5 6.5 6.5 6.5 6.5 6.5 6.5 6.5 6.5 6.5 6.5 6.5 6.5 6.9 6.5 6.5 6.5
8.3 8.1 7.9 7.5 7.3 7.2 7.0 6.4 6.0 5.5 4.7 2.2 0.8 -0.2 1.6 4.0 5.5 5.5 6.2 6.1 5.0 5.9 6.5 6.2 6.0 5.6 4.9 6.5 6.5 6.5 6.5 6.5 6.5 6.5 6.5 6.5 6.5 6.5 6.5 6.5 6.5 6.5 6.5 6.8 6.5 6.5 6.7
7.7 8.0 7.8 7.6 7.3 7.1 6.9 6.3 5.9 5.4 4.6 2.5 1.4 -0.4 1.0 2.7 4.8 4.8 5.3 4.4 4.8 4.7 6.5 5.9 6.1 5.9 6.3 6.5 6.5 6.5 6.5 6.5 6.5 6.5 6.5 6.5 6.5 6.5 6.5 6.5 6.5 6.7 6.5 6.5 6.6 6.9 7.0
7.8 7.7 7.7 7.4 7.3 7.0 6.7 6.3 5.8 5.4 4.9 3.1 1.7 0.6 0.6 1.6 4.5 3.1 4.6 5.3 5.8 4.4 3.4 4.6 5.2 6.0 4.7 6.5 6.5 6.5 6.5 6.5 6.5 6.5 6.5 6.5 6.5 6.5 6.5 6.5 6.6 6.8 6.8 6.7 6.8 6.9 6.8
Wind_Speed
23 25 26 27 31 31 31 31 31 29 29 26 24 21 19 17 15 12 9 6 7 11 11 12 12 11 4 3 10 4 2 6 8 8 6 6 5 5 5 4 3 5 5 7 8 9 7
23 24 26 28 30 31 32 33 33 31 31 29 27 23 20 17 14 12 10 8 8 9 11 12 9 8 1 4 2 5 5 4 5 4 5 6 6 7 3 4 5 2 5 7 6 7 5
27 27 28 29 31 32 33 34 34 32 31 31 28 25 23 19 14 12 10 8 9 10 11 12 9 5 4 17 3 5 3 3 3 5 4 4 4 2 1 4 2 4 4 6 6 6 7
29 30 32 32 33 34 35 33 34 33 32 32 29 26 22 17 14 10 8 9 10 11 11 12 9 4 8 5 7 7 5 4 6 6 5 4 2 3 3 5 6 3 1 2 4 3 4
32 34 35 35 35 36 36 36 35 34 31 30 28 26 23 19 14 8 6 9 14 13 12 8 4 3 10 6 4 9 8 7 7 4 5 1 4 5 2 2 4 3 4 3 6 4 4
33 34 37 38 38 37 37 38 37 34 33 31 29 26 22 18 12 6 3 8 13 5 1 5 5 3 6 4 3 3 5 4 4 3 3 4 2 3 2 3 5 5 3 3 4 6 5
33 35 36 38 36 35 36 37 36 33 32 31 32 29 25 21 13 5 2 3 3 1 4 10 7 5 5 5 5 4 5 7 5 3 5 3 3 6 9 6 3 2 3 5 5 11 3
30 32 33 35 33 32 33 34 34 31 31 31 32 29 26 20 16 11 4 4 3 2 7 16 18 12 8 2 4 5 6 6 5 7 4 2 5 9 5 4 5 5 5 6 6 10 6
29 32 32 32 33 29 30 32 31 29 31 31 32 29 26 22 15 9 5 11 2 3 4 7 9 9 8 10 7 7 9 5 4 6 7 7 6 3 6 4 5 6 4 5 8 5 4
33 34 36 33 29 24 26 27 28 28 30 32 31 30 27 23 7 4 4 9 6 3 3 7 6 8 9 9 7 11 9 6 3 9 7 6 6 9 6 6 8 6 9 11 7 1 3
31 32 34 32 25 17 20 22 24 28 31 34 33 33 31 17 7 5 2 9 6 3 1 3 4 2 10 12 3 5 5 2 8 7 6 6 5 5 5 6 7 7 6 7 5 4 2
25 28 27 23 17 15 16 19 21 30 33 34 35 33 29 6 3 2 3 7 4 2 9 3 5 6 8 5 1 4 5 2 3 5 1 5 1 2 4 1 2 5 2 3 3 3 5
19 25 21 15 15 14 15 18 25 31 34 34 34 31 13 7 4 1 5 5 3 5 4 4 5 5 5 4 2 2 5 4 3 4 2 2 0 1 4 3 4 8 3 2 2 0 6
14 24 28 15 11 13 19 26 30 33 33 34 31 24 15 4 10 7 3 2 6 7 7 3 2 7 4 0 1 3 4 4 5 3 3 4 3 2 5 3 2 1 1 3 4 3 4
3 17 26 31 30 27 21 28 34 34 35 35 25 3 3 3 8 3 8 4 6 3 3 2 4 4 2 2 3 3 4 3 2 2 4 3 2 1 3 2 1 3 2 3 3 2 3
3 9 16 24 28 32 32 30 31 34 33 24 5 6 1 5 10 4 3 7 4 2 3 4 2 4 2 2 3 3 3 1 3 3 1 3 1 3 3 1 5 6 3 3 2 3 5
4 12 16 19 23 25 28 30 29 26 24 23 7 5 5 10 2 2 6 4 2 2 2 6 3 3 3 1 1 2 2 1 2 2 4 3 2 2 2 1 0 4 1 1 1 2 3
10 10 12 15 19 22 23 25 26 27 27 7 3 4 4 4 3 2 3 3 6 1 9 4 3 3 3 1 2 2 3 3 2 3 3 2 3 2 6 4 3 3 2 2 4 4 3
16 13 10 12 14 17 21 22 22 20 11 3 3 3 2 1 3 6 4 0 5 3 4 1 2 1 1 2 3 3 4 3 3 3 5 4 1 1 3 4 4 3 2 2 0 3 6
16 15 14 9 14 15 17 17 18 19 10 2 3 3 2 1 2 6 4 4 4 4 3 4 3 4 4 3 5 3 3 3 4 2 4 3 3 4 4 1 2 3 4 2 4 2 5
19 16 15 15 8 14 14 14 14 12 7 2 1 3 5 7 4 4 3 4 5 3 2 4 4 4 3 3 2 2 2 3 2 2 3 3 4 4 4 3 3 7 12 11 12 13 10
19 19 17 17 11 12 11 11 11 10 7 1 3 4 2 4 4 6 2 2 5 3 3 2 5 2 4 3 1 3 3 2 3 2 2 2 2 2 3 4 7 16 15 14 14 17 14
18 18 15 17 12 9 8 7 6 8 8 1 0 1 3 2 3 4 2 4 4 6 6 5 6 3 3 2 1 3 4 4 5 6 4 4 3 2 4 2 9 11 10 7 12 16 16
16 17 15 14 13 9 7 3 2 6 11 2 2 2 4 1 3 4 6 6 6 3 6 2 4 3 1 4 3 3 4 7 7 8 7 5 5 3 2 3 4 6 3 6 8 10 8
15 18 18 12 10 7 4 2 2 6 11 2 1 2 3 3 6 9 9 9 7 6 4 4 4 1 3 4 3 4 3 2 2 3 8 9 5 1 2 3 8 7 4 4 4 4 9
16 20 19 16 10 7 5 5 5 5 7 3 2 1 3 6 2 3 5 4 4 3 3 2 4 3 5 3 3 2 1 2 3 3 8 8 6 4 2 3 4 2 11 8 4 2 6
17 18 18 15 11 8 6 7 9 10 9 4 2 3 4 4 1 2 4 4 4 4 3 1 2 4 3 2 2 1 2 3 2 3 3 5 3 8 5 2 6 11 17 9 2 3 6
18 18 17 14 10 8 8 9 9 10 9 4 1 3 3 3 2 4 3 4 3 2 4 2 3 4 3 3 1 1 1 2 3 1 2 4 6 3 4 4 4 15 7 4 4 7 8
15 18 16 13 11 9 9 12 14 11 7 4 3 3 3 5 3 2 4 2 3 6 5 3 4 2 3 3 1 1 1 2 3 2 6 2 3 1 3 3 3 5 6 10 8 7 7
Wind_Direction
300 292 285 276 245 237 236 234 231 228 230 227 228 229 228 233 247 255 265 275 297 307 315 315 325 330 12 44 250 301 14 123 146 145 171 160 154 166 190 201 202 221 240 248 242 256 248
303 298 286 278 272 252 240 236 233 228 226 224 219 216 221 224 232 249 262 278 296 304 309 311 318 315 78 275 196 38 326 168 175 163 180 170 198 198 244 233 182 218 220 261 268 255 255
300 297 289 281 273 267 254 245 233 230 225 223 218 209 206 210 221 239 254 274 289 301 304 304 296 251 254 243 214 247 344 237 195 181 181 205 196 160 190 295 273 260 295 291 246 238 239
297 295 287 280 272 262 257 244 239 232 226 223 216 203 198 201 210 224 250 282 293 294 297 298 283 236 251 271 271 271 155 250 236 249 244 269 196 213 178 280 343 326 78 324 298 348 259
293 292 286 279 271 263 254 250 235 227 225 218 210 197 190 185 201 195 254 293 288 292 285 267 250 223 263 308 254 252 175 199 189 198 213 163 148 192 204 165 360 345 260 251 304 260 278
296 292 287 280 273 265 256 247 241 233 223 209 200 192 186 176 180 178 272 290 290 287 215 170 249 273 257 263 247 216 186 145 166 177 114 140 121 174 64 124 228 220 230 244 259 297 293
302 296 295 287 274 265 258 246 239 223 218 202 188 185 176 165 160 158 113 21 235 82 238 193 197 242 282 286 288 240 169 147 158 140 174 168 143 202 221 207 209 228 239 246 252 261 298
312 307 297 292 274 261 252 243 235 218 200 190 189 180 164 154 157 127 115 252 235 338 294 231 243 237 270 16 315 272 148 148 149 191 136 66 228 232 206 193 213 239 259 277 278 265 180
314 312 302 296 282 263 245 235 226 212 200 189 175 166 153 148 144 148 187 216 24 313 263 264 211 225 216 176 234 252 162 151 162 174 185 181 218 149 175 227 215 227 198 239 228 309 268
307 312 305 296 278 254 239 227 221 201 189 172 166 152 144 133 129 143 212 228 245 241 290 266 221 244 173 173 231 210 190 147 177 203 177 217 235 230 205 232 198 246 211 227 250 45 254
309 310 299 296 262 229 226 221 205 186 173 163 155 145 140 145 130 170 326 123 140 34 285 203 185 165 155 169 148 207 161 101 165 185 130 233 184 150 197 216 168 230 229 230 233 223 279
324 316 300 291 238 220 219 206 187 171 162 154 147 144 143 121 112 149 130 77 52 166 242 228 152 165 151 214 231 114 148 122 153 145 136 235 266 200 220 197 187 295 253 286 70 147 259
359 351 343 268 233 218 212 192 169 155 145 140 137 138 128 133 155 48 109 130 145 189 312 199 174 149 173 163 206 159 128 51 164 126 163 354 318 358 50 70 13 27 62 319 316 215 235
29 29 28 39 237 196 162 142 134 133 131 129 129 127 139 137 162 173 140 154 196 213 233 328 93 105 151 54 79 109 100 119 32 74 119 164 164 11 339 100 242 297 147 171 248 229 278
15 77 59 52 64 74 104 124 124 123 123 118 109 44 74 221 166 162 156 200 199 278 341 18 64 109 86 28 114 90 69 89 71 27 150 140 244 83 90 256 174 324 64 164 261 256 259
183 96 91 94 86 83 84 88 103 111 115 114 105 107 237 144 148 93 173 219 239 300 315 6 119 30 116 22 58 72 104 325 114 36 17 189 197 8 291 124 38 88 280 13 354 276 242
72 97 105 110 114 115 118 120 119 116 115 118 114 101 205 151 143 113 183 237 261 334 219 41 82 93 73 104 91 94 91 70 111 80 81 139 131 246 15 266 29 2 353 358 179 197 243
162 133 123 120 121 124 127 129 132 141 154 166 150 119 181 152 123 204 200 201 195 59 56 27 74 74 104 206 98 87 120 92 132 131 110 43 116 149 228 296 296 141 135 115 120 282 280
147 133 119 130 135 137 138 142 147 160 157 113 97 94 19 169 160 178 247 95 41 46 41 136 101 117 149 107 100 99 97 42 76 122 159 175 130 110 104 51 30 106 124 126 98 204 233
151 147 144 129 150 140 141 146 154 170 175 84 109 117 85 218 263 185 163 146 118 61 75 70 84 73 77 68 28 134 97 42 17 72 104 107 158 186 203 150 149 264 227 222 175 166 263
158 153 143 133 133 142 145 153 160 170 180 131 74 160 168 190 236 194 131 137 119 121 76 45 46 67 134 127 103 103 79 29 359 183 56 110 202 217 237 255 246 260 262 257 246 244 238
163 150 152 140 154 136 145 150 164 178 163 136 148 126 70 131 125 131 57 115 125 105 93 70 116 106 64 109 95 171 135 165 228 67 107 22 250 167 250 254 254 273 274 267 254 251 251
152 151 150 142 149 149 153 163 180 204 182 101 303 304 117 354 108 93 165 143 137 120 40 59 135 110 76 52 199 221 205 195 196 173 180 148 130 71 284 330 322 289 271 270 271 256 234
154 152 148 137 143 160 156 169 243 199 186 156 198 115 88 51 96 117 122 105 114 90 124 55 72 96 79 317 296 282 231 228 226 226 174 155 124 120 263 20 262 245 45 336 16 33 357
165 148 137 135 135 131 114 41 32 135 183 111 141 111 114 86 112 93 93 108 72 60 67 79 36 37 307 33 17 333 345 311 263 196 204 202 148 156 178 197 276 292 9 334 324 25 3
154 145 135 134 133 122 94 48 62 121 120 93 71 280 93 118 357 85 92 94 115 94 39 50 18 358 62 80 63 32 326 305 317 173 15 167 178 136 120 216 264 4 334 318 266 153 16
155 137 132 129 123 106 82 56 60 76 84 110 58 360 89 100 31 78 107 131 111 97 107 348 358 24 51 63 73 115 285 321 299 285 136 118 142 198 232 298 285 350 329 313 221 44 35
135 135 132 127 119 105 77 55 56 63 64 85 197 356 110 93 27 39 95 113 82 102 133 208 53 359 44 72 92 286 285 318 316 319 276 157 174 168 195 208 277 358 359 37 69 65 68
126 131 126 120 117 100 76 55 56 60 61 103 66 354 9 80 124 47 51 70 126 164 125 45 150 170 190 81 229 260 284 295 270 8 352 61 358 80 6 76 54 3 31 44 57 76 77